Time,TemperatureF,DewpointF,PressureIn,WindDirection,WindDirectionDegrees,WindSpeedMPH,WindSpeedGustMPH,Humidity,HourlyPrecipIn,Conditions,Clouds,dailyrainin,SoftwareType,DateUTC
2013-01-23 00:02:00,55.4,50.3,30.24,SSE,149,2.0,7.0,83,0.00,,,0.00,Wunderground v.1.15,2013-01-23 06:02:00,
2013-01-23 00:08:00,55.3,50.2,30.24,South,181,2.0,7.0,83,0.00,,,0.00,Wunderground v.1.15,2013-01-23 06:08:00,
2013-01-23 00:14:00,55.3,50.2,30.24,SE,136,3.0,7.0,83,0.00,,,0.00,Wunderground v.1.15,2013-01-23 06:14:00,
2013-01-23 00:20:00,55.2,50.4,30.24,SE,138,3.0,3.0,84,0.00,,,0.00,Wunderground v.1.15,2013-01-23 06:20:00,
2013-01-23 00:26:00,55.1,50.4,30.24,SW,214,2.0,7.0,84,0.00,,,0.00,Wunderground v.1.15,2013-01-23 06:26:00,
2013-01-23 00:32:00,55.0,50.3,30.24,SE,139,2.0,7.0,84,0.00,,,0.00,Wunderground v.1.15,2013-01-23 06:32:00,
2013-01-23 00:38:00,55.0,50.6,30.24,SE,139,2.0,7.0,85,0.00,,,0.00,Wunderground v.1.15,2013-01-23 06:38:00,
2013-01-23 00:44:00,54.7,50.3,30.25,SSE,151,2.0,7.0,85,0.00,,,0.00,Wunderground v.1.15,2013-01-23 06:44:00,
2013-01-23 00:50:00,54.5,50.1,30.25,SE,141,1.0,7.0,85,0.00,,,0.00,Wunderground v.1.15,2013-01-23 06:50:00,
2013-01-23 00:56:00,54.2,50.1,30.24,SE,137,1.0,7.0,86,0.00,,,0.00,Wunderground v.1.15,2013-01-23 06:56:00,
2013-01-23 01:02:00,53.9,49.8,30.25,SE,127,1.0,7.0,86,0.00,,,0.00,Wunderground v.1.15,2013-01-23 07:02:00,
2013-01-23 01:08:00,53.7,49.9,30.25,ESE,103,1.0,7.0,87,0.00,,,0.00,Wunderground v.1.15,2013-01-23 07:08:00,
2013-01-23 01:14:00,53.5,49.7,30.25,SE,143,1.0,4.0,87,0.00,,,0.00,Wunderground v.1.15,2013-01-23 07:14:00,
2013-01-23 01:20:00,53.3,49.5,30.25,SE,124,1.0,4.0,87,0.00,,,0.00,Wunderground v.1.15,2013-01-23 07:20:00,
2013-01-23 01:26:00,53.2,49.7,30.25,SE,136,1.0,4.0,88,0.00,,,0.00,Wunderground v.1.15,2013-01-23 07:26:00,
2013-01-23 01:32:00,53.2,49.7,30.25,SE,143,1.0,4.0,88,0.00,,,0.00,Wunderground v.1.15,2013-01-23 07:32:00,
2013-01-23 01:38:00,53.1,49.6,30.25,SE,136,1.0,4.0,88,0.00,,,0.00,Wunderground v.1.15,2013-01-23 07:38:00,
2013-01-23 01:44:00,52.9,49.4,30.24,SE,131,0.0,4.0,88,0.00,,,0.00,Wunderground v.1.15,2013-01-23 07:44:00,
2013-01-23 01:50:00,52.8,49.6,30.24,SE,135,0.0,4.0,89,0.00,,,0.00,Wunderground v.1.15,2013-01-23 07:50:00,
2013-01-23 01:56:00,52.6,49.4,30.25,SE,135,0.0,4.0,89,0.00,,,0.00,Wunderground v.1.15,2013-01-23 07:56:00,
2013-01-23 02:02:00,52.3,49.2,30.25,SE,135,0.0,4.0,89,0.00,,,0.00,Wunderground v.1.15,2013-01-23 08:02:00,
2013-01-23 02:08:00,52.3,49.5,30.25,SE,134,0.0,4.0,90,0.00,,,0.00,Wunderground v.1.15,2013-01-23 08:08:00,
2013-01-23 02:14:00,52.2,49.4,30.25,SE,134,0.0,2.0,90,0.00,,,0.00,Wunderground v.1.15,2013-01-23 08:14:00,
2013-01-23 02:20:00,52.1,49.6,30.25,SE,134,0.0,2.0,91,0.00,,,0.00,Wunderground v.1.15,2013-01-23 08:20:00,
2013-01-23 02:26:00,51.9,49.4,30.25,SE,134,0.0,2.0,91,0.00,,,0.00,Wunderground v.1.15,2013-01-23 08:26:00,
2013-01-23 02:32:00,51.7,49.2,30.25,SE,134,0.0,2.0,91,0.00,,,0.00,Wunderground v.1.15,2013-01-23 08:32:00,
2013-01-23 02:38:00,51.5,49.0,30.24,SE,134,0.0,2.0,91,0.00,,,0.00,Wunderground v.1.15,2013-01-23 08:38:00,
2013-01-23 02:44:00,51.3,49.1,30.24,SE,134,0.0,2.0,92,0.00,,,0.00,Wunderground v.1.15,2013-01-23 08:44:00,
2013-01-23 02:49:00,51.1,48.9,30.24,SE,135,0.0,2.0,92,0.00,,,0.00,Wunderground v.1.15,2013-01-23 08:49:00,
2013-01-23 02:56:00,51.0,48.8,30.24,SE,136,0.0,2.0,92,0.00,,,0.00,Wunderground v.1.15,2013-01-23 08:56:00,
2013-01-23 03:02:00,51.1,48.9,30.24,SE,135,0.0,2.0,92,0.00,,,0.00,Wunderground v.1.15,2013-01-23 09:02:00,
2013-01-23 03:08:00,51.0,48.8,30.25,SE,136,0.0,2.0,92,0.00,,,0.00,Wunderground v.1.15,2013-01-23 09:08:00,
2013-01-23 03:14:00,51.0,49.0,30.25,SE,135,0.0,1.0,93,0.00,,,0.00,Wunderground v.1.15,2013-01-23 09:14:00,
2013-01-23 03:20:00,51.2,49.2,30.25,SE,134,0.0,1.0,93,0.00,,,0.00,Wunderground v.1.15,2013-01-23 09:20:00,
2013-01-23 03:26:00,51.1,49.1,30.25,SE,134,0.0,1.0,93,0.00,,,0.00,Wunderground v.1.15,2013-01-23 09:26:00,
2013-01-23 03:32:00,51.0,49.0,30.24,SE,134,0.0,1.0,93,0.00,,,0.00,Wunderground v.1.15,2013-01-23 09:32:00,
2013-01-23 03:37:00,50.9,48.9,30.24,SE,134,0.0,1.0,93,0.00,,,0.00,Wunderground v.1.15,2013-01-23 09:37:00,
2013-01-23 03:44:00,50.7,48.7,30.24,SE,134,0.0,1.0,93,0.00,,,0.00,Wunderground v.1.15,2013-01-23 09:44:00,
2013-01-23 03:50:00,50.5,48.6,30.24,SE,134,0.0,1.0,93,0.00,,,0.00,Wunderground v.1.15,2013-01-23 09:50:00,
2013-01-23 03:56:00,50.7,49.0,30.24,SE,134,0.0,1.0,94,0.00,,,0.00,Wunderground v.1.15,2013-01-23 09:56:00,
2013-01-23 04:02:00,50.8,49.1,30.24,SE,134,0.0,1.0,94,0.00,,,0.00,Wunderground v.1.15,2013-01-23 10:02:00,
2013-01-23 04:08:00,50.8,49.1,30.23,SE,134,0.0,1.0,94,0.00,,,0.00,Wunderground v.1.15,2013-01-23 10:08:00,
2013-01-23 04:14:00,50.6,48.7,30.23,SE,134,0.0,1.0,93,0.00,,,0.00,Wunderground v.1.15,2013-01-23 10:14:00,
2013-01-23 04:20:00,49.9,48.0,30.23,SE,134,0.0,1.0,93,0.00,,,0.00,Wunderground v.1.15,2013-01-23 10:20:00,
2013-01-23 04:26:00,49.3,47.4,30.23,SE,134,0.0,1.0,93,0.00,,,0.00,Wunderground v.1.15,2013-01-23 10:26:00,
2013-01-23 04:32:00,49.2,47.5,30.23,SE,134,0.0,1.0,94,0.00,,,0.00,Wunderground v.1.15,2013-01-23 10:32:00,
2013-01-23 04:37:00,49.1,47.4,30.23,SE,134,0.0,1.0,94,0.00,,,0.00,Wunderground v.1.15,2013-01-23 10:37:00,
2013-01-23 04:44:00,49.2,47.5,30.23,SE,134,0.0,1.0,94,0.00,,,0.00,Wunderground v.1.15,2013-01-23 10:44:00,
2013-01-23 04:50:00,49.8,48.4,30.24,North,349,1.0,1.0,95,0.00,,,0.00,Wunderground v.1.15,2013-01-23 10:50:00,
2013-01-23 04:56:00,49.8,48.4,30.24,NNW,348,1.0,1.0,95,0.00,,,0.00,Wunderground v.1.15,2013-01-23 10:56:00,
2013-01-23 05:02:00,49.8,48.4,30.24,North,349,0.0,2.0,95,0.00,,,0.00,Wunderground v.1.15,2013-01-23 11:02:00,
2013-01-23 05:08:00,49.1,47.2,30.24,North,349,0.0,2.0,93,0.00,,,0.00,Wunderground v.1.15,2013-01-23 11:08:00,
2013-01-23 05:14:00,49.3,47.9,30.24,North,349,0.0,2.0,95,0.00,,,0.00,Wunderground v.1.15,2013-01-23 11:14:00,
2013-01-23 05:19:00,49.5,48.1,30.24,North,349,0.0,2.0,95,0.00,,,0.00,Wunderground v.1.15,2013-01-23 11:19:00,
2013-01-23 05:26:00,49.6,48.2,30.24,NNW,348,0.0,2.0,95,0.00,,,0.00,Wunderground v.1.15,2013-01-23 11:26:00,
2013-01-23 05:32:00,49.4,48.0,30.24,North,349,0.0,2.0,95,0.00,,,0.00,Wunderground v.1.15,2013-01-23 11:32:00,
2013-01-23 05:38:00,49.8,48.4,30.24,NNW,348,0.0,2.0,95,0.00,,,0.00,Wunderground v.1.15,2013-01-23 11:38:00,
2013-01-23 05:44:00,49.6,48.2,30.24,North,349,0.0,2.0,95,0.00,,,0.00,Wunderground v.1.15,2013-01-23 11:44:00,
2013-01-23 05:50:00,49.5,48.1,30.24,North,349,0.0,2.0,95,0.00,,,0.00,Wunderground v.1.15,2013-01-23 11:50:00,
2013-01-23 05:56:00,49.7,48.3,30.24,North,349,0.0,2.0,95,0.00,,,0.00,Wunderground v.1.15,2013-01-23 11:56:00,
2013-01-23 06:02:00,49.5,47.8,30.24,NNW,348,0.0,2.0,94,0.00,,,0.00,Wunderground v.1.15,2013-01-23 12:02:00,
2013-01-23 06:08:00,49.5,48.1,30.24,North,349,0.0,2.0,95,0.00,,,0.00,Wunderground v.1.15,2013-01-23 12:08:00,
2013-01-23 06:14:00,49.6,48.2,30.24,North,349,0.0,1.0,95,0.00,,,0.00,Wunderground v.1.15,2013-01-23 12:14:00,
2013-01-23 06:20:00,50.5,49.4,30.24,ENE,62,0.0,1.0,96,0.00,,,0.00,Wunderground v.1.15,2013-01-23 12:20:00,
2013-01-23 06:26:00,51.1,50.0,30.25,ENE,63,0.0,1.0,96,0.00,,,0.00,Wunderground v.1.15,2013-01-23 12:26:00,
2013-01-23 06:32:00,51.4,50.3,30.25,ENE,62,0.0,1.0,96,0.00,,,0.00,Wunderground v.1.15,2013-01-23 12:32:00,
2013-01-23 06:37:00,51.7,50.6,30.25,ENE,63,0.0,1.0,96,0.00,,,0.00,Wunderground v.1.15,2013-01-23 12:37:00,
2013-01-23 06:44:00,52.0,50.9,30.25,ENE,62,0.0,1.0,96,0.00,,,0.00,Wunderground v.1.15,2013-01-23 12:44:00,
2013-01-23 06:50:00,52.2,50.8,30.25,ENE,63,0.0,1.0,95,0.00,,,0.00,Wunderground v.1.15,2013-01-23 12:50:00,
2013-01-23 06:56:00,52.3,50.9,30.25,ENE,58,1.0,1.0,95,0.00,,,0.00,Wunderground v.1.15,2013-01-23 12:56:00,
2013-01-23 07:02:00,52.4,51.0,30.26,East,80,1.0,2.0,95,0.00,,,0.00,Wunderground v.1.15,2013-01-23 13:02:00,
2013-01-23 07:08:00,52.3,50.9,30.26,ENE,75,1.0,2.0,95,0.00,,,0.00,Wunderground v.1.15,2013-01-23 13:08:00,
2013-01-23 07:14:00,52.2,50.8,30.26,East,79,0.0,2.0,95,0.00,,,0.00,Wunderground v.1.15,2013-01-23 13:14:00,
2013-01-23 07:20:00,52.0,50.6,30.26,East,79,0.0,2.0,95,0.00,,,0.00,Wunderground v.1.15,2013-01-23 13:20:00,
2013-01-23 07:26:00,52.0,50.6,30.27,ENE,67,1.0,2.0,95,0.00,,,0.00,Wunderground v.1.15,2013-01-23 13:26:00,
2013-01-23 07:32:00,52.1,51.0,30.27,ENE,68,0.0,2.0,96,0.00,,,0.00,Wunderground v.1.15,2013-01-23 13:32:00,
2013-01-23 07:38:00,52.1,51.0,30.27,ENE,68,0.0,2.0,96,0.00,,,0.00,Wunderground v.1.15,2013-01-23 13:38:00,
2013-01-23 07:44:00,52.2,51.1,30.27,ENE,68,0.0,2.0,96,0.00,,,0.00,Wunderground v.1.15,2013-01-23 13:44:00,
2013-01-23 07:50:00,52.3,51.2,30.27,ENE,68,0.0,2.0,96,0.00,,,0.00,Wunderground v.1.15,2013-01-23 13:50:00,
2013-01-23 07:56:00,52.4,51.3,30.28,ENE,68,0.0,2.0,96,0.00,,,0.00,Wunderground v.1.15,2013-01-23 13:56:00,
2013-01-23 08:02:00,52.4,51.3,30.28,ENE,68,0.0,2.0,96,0.00,,,0.00,Wunderground v.1.15,2013-01-23 14:02:00,
2013-01-23 08:07:00,52.4,51.3,30.28,ENE,68,0.0,2.0,96,0.00,,,0.00,Wunderground v.1.15,2013-01-23 14:07:00,
2013-01-23 08:14:00,52.4,51.3,30.28,ENE,68,0.0,1.0,96,0.00,,,0.00,Wunderground v.1.15,2013-01-23 14:14:00,
2013-01-23 08:20:00,52.6,51.5,30.27,ENE,68,0.0,1.0,96,0.00,,,0.00,Wunderground v.1.15,2013-01-23 14:20:00,
2013-01-23 08:26:00,53.6,52.5,30.28,ENE,68,0.0,1.0,96,0.00,,,0.00,Wunderground v.1.15,2013-01-23 14:26:00,
2013-01-23 08:32:00,54.2,53.1,30.28,ENE,68,0.0,1.0,96,0.00,,,0.00,Wunderground v.1.15,2013-01-23 14:32:00,
2013-01-23 08:38:00,55.3,54.5,30.28,ENE,68,0.0,1.0,97,0.00,,,0.00,Wunderground v.1.15,2013-01-23 14:38:00,
2013-01-23 08:44:00,56.1,55.0,30.28,ENE,68,0.0,1.0,96,0.00,,,0.00,Wunderground v.1.15,2013-01-23 14:44:00,
2013-01-23 08:49:00,56.4,54.7,30.28,East,98,0.0,1.0,94,0.00,,,0.00,Wunderground v.1.15,2013-01-23 14:49:00,
2013-01-23 08:56:00,56.0,54.0,30.29,SE,129,0.0,1.0,93,0.00,,,0.00,Wunderground v.1.15,2013-01-23 14:56:00,
2013-01-23 09:02:00,55.8,53.8,30.29,SE,134,0.0,1.0,93,0.00,,,0.00,Wunderground v.1.15,2013-01-23 15:02:00,
2013-01-23 09:08:00,56.0,54.0,30.30,SE,134,0.0,1.0,93,0.00,,,0.00,Wunderground v.1.15,2013-01-23 15:08:00,
2013-01-23 09:13:00,56.4,54.4,30.30,SSE,155,0.0,0.0,93,0.00,,,0.00,Wunderground v.1.15,2013-01-23 15:13:00,
2013-01-23 09:20:00,56.9,54.6,30.30,SE,132,1.0,2.0,92,0.00,,,0.00,Wunderground v.1.15,2013-01-23 15:20:00,
2013-01-23 09:26:00,57.2,54.9,30.30,SSE,163,1.0,2.0,92,0.00,,,0.00,Wunderground v.1.15,2013-01-23 15:26:00,
2013-01-23 09:31:00,57.8,55.2,30.30,SE,139,1.0,3.0,91,0.00,,,0.00,Wunderground v.1.15,2013-01-23 15:31:00,
2013-01-23 09:38:00,58.5,55.6,30.31,SE,134,1.0,3.0,90,0.00,,,0.00,Wunderground v.1.15,2013-01-23 15:38:00,
2013-01-23 09:44:00,59.0,55.4,30.31,SSE,156,2.0,3.0,88,0.00,,,0.00,Wunderground v.1.15,2013-01-23 15:44:00,
2013-01-23 09:50:00,59.4,55.5,30.31,SW,219,3.0,3.0,87,0.00,,,0.00,Wunderground v.1.15,2013-01-23 15:50:00,
2013-01-23 09:55:00,60.1,56.2,30.31,South,185,2.0,3.0,87,0.00,,,0.00,Wunderground v.1.15,2013-01-23 15:55:00,
2013-01-23 10:02:00,60.9,56.4,30.32,SSW,203,2.0,6.0,85,0.00,,,0.00,Wunderground v.1.15,2013-01-23 16:02:00,
2013-01-23 10:08:00,61.4,56.2,30.32,SW,236,2.0,6.0,83,0.00,,,0.00,Wunderground v.1.15,2013-01-23 16:08:00,
2013-01-23 10:13:00,61.5,56.0,30.32,WSW,248,2.0,6.0,82,0.00,,,0.00,Wunderground v.1.15,2013-01-23 16:13:00,
2013-01-23 10:20:00,61.3,56.1,30.32,SW,232,3.0,3.0,83,0.00,,,0.00,Wunderground v.1.15,2013-01-23 16:20:00,
2013-01-23 10:26:00,61.3,56.4,30.33,WSW,242,3.0,6.0,84,0.00,,,0.00,Wunderground v.1.15,2013-01-23 16:26:00,
2013-01-23 10:32:00,61.9,56.3,30.33,SW,235,2.0,6.0,82,0.00,,,0.00,Wunderground v.1.15,2013-01-23 16:32:00,
2013-01-23 10:37:00,62.3,56.7,30.33,SE,143,2.0,6.0,82,0.00,,,0.00,Wunderground v.1.15,2013-01-23 16:37:00,
2013-01-23 10:44:00,62.8,56.9,30.33,WSW,242,3.0,6.0,81,0.00,,,0.00,Wunderground v.1.15,2013-01-23 16:44:00,
2013-01-23 10:50:00,62.8,56.9,30.33,South,176,3.0,3.0,81,0.00,,,0.00,Wunderground v.1.15,2013-01-23 16:50:00,
2013-01-23 10:56:00,63.0,57.1,30.33,SW,236,3.0,6.0,81,0.00,,,0.00,Wunderground v.1.15,2013-01-23 16:56:00,
2013-01-23 11:02:00,63.4,57.5,30.33,SW,229,3.0,8.0,81,0.00,,,0.00,Wunderground v.1.15,2013-01-23 17:02:00,
2013-01-23 11:08:00,63.9,57.6,30.33,SSE,153,3.0,8.0,80,0.00,,,0.00,Wunderground v.1.15,2013-01-23 17:08:00,
2013-01-23 11:14:00,63.6,57.3,30.32,WSW,248,3.0,8.0,80,0.00,,,0.00,Wunderground v.1.15,2013-01-23 17:14:00,
2013-01-23 11:20:00,63.7,57.8,30.32,WSW,239,3.0,3.0,81,0.00,,,0.00,Wunderground v.1.15,2013-01-23 17:20:00,
2013-01-23 11:26:00,63.5,57.6,30.32,SSE,168,2.0,8.0,81,0.00,,,0.00,Wunderground v.1.15,2013-01-23 17:26:00,
2013-01-23 11:32:00,63.7,57.8,30.31,WSW,256,2.0,6.0,81,0.00,,,0.00,Wunderground v.1.15,2013-01-23 17:32:00,
2013-01-23 11:38:00,64.0,58.1,30.31,SW,228,3.0,8.0,81,0.00,,,0.00,Wunderground v.1.15,2013-01-23 17:38:00,
2013-01-23 11:44:00,64.6,58.6,30.30,SSE,165,4.0,8.0,81,0.00,,,0.00,Wunderground v.1.15,2013-01-23 17:44:00,
2013-01-23 11:50:00,65.4,58.7,30.30,WSW,250,4.0,4.0,79,0.00,,,0.00,Wunderground v.1.15,2013-01-23 17:50:00,
2013-01-23 11:56:00,66.2,58.8,30.30,SW,226,4.0,8.0,77,0.00,,,0.00,Wunderground v.1.15,2013-01-23 17:56:00,
2013-01-23 12:02:00,66.7,58.9,30.29,SSW,201,5.0,12.0,76,0.00,,,0.00,Wunderground v.1.15,2013-01-23 18:02:00,
2013-01-23 12:07:00,67.3,59.1,30.29,SSW,198,5.0,12.0,75,0.00,,,0.00,Wunderground v.1.15,2013-01-23 18:07:00,
2013-01-23 12:14:00,67.4,58.8,30.28,NW,309,5.0,12.0,74,0.00,,,0.00,Wunderground v.1.15,2013-01-23 18:14:00,
2013-01-23 12:20:00,67.1,58.9,30.27,SW,219,5.0,5.0,75,0.00,,,0.00,Wunderground v.1.15,2013-01-23 18:20:00,
2013-01-23 12:26:00,67.7,59.5,30.27,West,259,6.0,12.0,75,0.00,,,0.00,Wunderground v.1.15,2013-01-23 18:26:00,
2013-01-23 12:32:00,67.5,58.5,30.26,SW,236,5.0,12.0,73,0.00,,,0.00,Wunderground v.1.15,2013-01-23 18:32:00,
2013-01-23 12:38:00,67.5,58.9,30.26,SW,235,6.0,12.0,74,0.00,,,0.00,Wunderground v.1.15,2013-01-23 18:38:00,
2013-01-23 12:44:00,68.3,59.3,30.26,West,274,4.0,12.0,73,0.00,,,0.00,Wunderground v.1.15,2013-01-23 18:44:00,
2013-01-23 12:49:00,68.9,59.1,30.25,SW,236,4.0,12.0,71,0.00,,,0.00,Wunderground v.1.15,2013-01-23 18:49:00,
2013-01-23 12:56:00,69.4,59.2,30.25,North,355,4.0,12.0,70,0.00,,,0.00,Wunderground v.1.15,2013-01-23 18:56:00,
2013-01-23 13:02:00,70.4,59.3,30.25,WSW,242,3.0,12.0,68,0.00,,,0.00,Wunderground v.1.15,2013-01-23 19:02:00,
2013-01-23 13:08:00,70.1,58.2,30.25,SSW,205,5.0,12.0,66,0.00,,,0.00,Wunderground v.1.15,2013-01-23 19:08:00,
2013-01-23 13:14:00,70.4,58.5,30.24,WSW,242,4.0,12.0,66,0.00,,,0.00,Wunderground v.1.15,2013-01-23 19:14:00,
2013-01-23 13:20:00,70.9,59.0,30.24,SSW,205,4.0,4.0,66,0.00,,,0.00,Wunderground v.1.15,2013-01-23 19:20:00,
2013-01-23 13:26:00,70.7,58.4,30.24,WSW,255,3.0,12.0,65,0.00,,,0.00,Wunderground v.1.15,2013-01-23 19:26:00,
2013-01-23 13:31:00,71.1,58.3,30.23,North,358,3.0,12.0,64,0.00,,,0.00,Wunderground v.1.15,2013-01-23 19:31:00,
2013-01-23 13:38:00,71.8,58.5,30.23,SE,139,3.0,12.0,63,0.00,,,0.00,Wunderground v.1.15,2013-01-23 19:38:00,
2013-01-23 13:44:00,72.1,58.4,30.22,SE,134,4.0,12.0,62,0.00,,,0.00,Wunderground v.1.15,2013-01-23 19:44:00,
2013-01-23 13:50:00,71.9,58.2,30.22,SE,127,4.0,4.0,62,0.00,,,0.00,Wunderground v.1.15,2013-01-23 19:50:00,
2013-01-23 13:56:00,72.0,58.3,30.22,SW,229,4.0,12.0,62,0.00,,,0.00,Wunderground v.1.15,2013-01-23 19:56:00,
2013-01-23 14:02:00,72.4,58.6,30.21,WSW,252,3.0,6.0,62,0.00,,,0.00,Wunderground v.1.15,2013-01-23 20:02:00,
2013-01-23 14:08:00,72.4,58.2,30.21,SSW,206,4.0,10.0,61,0.00,,,0.00,Wunderground v.1.15,2013-01-23 20:08:00,
2013-01-23 14:14:00,72.5,58.3,30.20,SE,126,6.0,10.0,61,0.00,,,0.00,Wunderground v.1.15,2013-01-23 20:14:00,
2013-01-23 14:20:00,72.5,58.3,30.21,WSW,249,5.0,5.0,61,0.00,,,0.00,Wunderground v.1.15,2013-01-23 20:20:00,
2013-01-23 14:26:00,73.1,58.4,30.21,WSW,250,4.0,10.0,60,0.00,,,0.00,Wunderground v.1.15,2013-01-23 20:26:00,
2013-01-23 14:32:00,73.3,57.6,30.21,SE,129,5.0,10.0,58,0.00,,,0.00,Wunderground v.1.15,2013-01-23 20:32:00,
2013-01-23 14:38:00,74.1,57.9,30.21,SW,233,4.0,10.0,57,0.00,,,0.00,Wunderground v.1.15,2013-01-23 20:38:00,
2013-01-23 14:44:00,74.2,58.0,30.20,WSW,246,4.0,10.0,57,0.00,,,0.00,Wunderground v.1.15,2013-01-23 20:44:00,
2013-01-23 14:50:00,74.3,58.1,30.20,SW,227,4.0,10.0,57,0.00,,,0.00,Wunderground v.1.15,2013-01-23 20:50:00,
2013-01-23 14:56:00,73.9,57.7,30.20,SW,231,3.0,10.0,57,0.00,,,0.00,Wunderground v.1.15,2013-01-23 20:56:00,
2013-01-23 15:02:00,73.5,57.8,30.20,SE,139,4.0,12.0,58,0.00,,,0.00,Wunderground v.1.15,2013-01-23 21:02:00,
2013-01-23 15:08:00,73.9,57.7,30.20,South,176,4.0,12.0,57,0.00,,,0.00,Wunderground v.1.15,2013-01-23 21:08:00,
2013-01-23 15:14:00,74.6,58.4,30.19,SE,135,4.0,12.0,57,0.00,,,0.00,Wunderground v.1.15,2013-01-23 21:14:00,
2013-01-23 15:20:00,74.3,57.6,30.19,West,274,5.0,12.0,56,0.00,,,0.00,Wunderground v.1.15,2013-01-23 21:20:00,
2013-01-23 15:26:00,73.8,58.1,30.19,WSW,239,6.0,12.0,58,0.00,,,0.00,Wunderground v.1.15,2013-01-23 21:26:00,
2013-01-23 15:32:00,74.2,58.0,30.19,WSW,255,5.0,12.0,57,0.00,,,0.00,Wunderground v.1.15,2013-01-23 21:32:00,
2013-01-23 15:38:00,74.8,58.1,30.19,SW,221,4.0,12.0,56,0.00,,,0.00,Wunderground v.1.15,2013-01-23 21:38:00,
2013-01-23 15:44:00,74.9,58.6,30.19,WSW,248,4.0,12.0,57,0.00,,,0.00,Wunderground v.1.15,2013-01-23 21:44:00,
2013-01-23 15:50:00,74.9,58.1,30.19,SE,145,3.0,12.0,56,0.00,,,0.00,Wunderground v.1.15,2013-01-23 21:50:00,
2013-01-23 15:56:00,74.5,57.8,30.19,ESE,114,6.0,12.0,56,0.00,,,0.00,Wunderground v.1.15,2013-01-23 21:56:00,
2013-01-23 16:02:00,75.0,58.2,30.19,WSW,250,5.0,14.0,56,0.00,,,0.00,Wunderground v.1.15,2013-01-23 22:02:00,
2013-01-23 16:08:00,74.9,58.1,30.19,SW,225,4.0,14.0,56,0.00,,,0.00,Wunderground v.1.15,2013-01-23 22:08:00,
2013-01-23 16:13:00,75.2,58.4,30.18,SSW,193,3.0,14.0,56,0.00,,,0.00,Wunderground v.1.15,2013-01-23 22:13:00,
2013-01-23 16:20:00,75.0,58.2,30.18,SSW,197,5.0,14.0,56,0.00,,,0.00,Wunderground v.1.15,2013-01-23 22:20:00,
2013-01-23 16:26:00,75.1,58.8,30.18,SE,138,4.0,14.0,57,0.00,,,0.00,Wunderground v.1.15,2013-01-23 22:26:00,
2013-01-23 16:32:00,75.2,58.4,30.18,SW,235,4.0,14.0,56,0.00,,,0.00,Wunderground v.1.15,2013-01-23 22:32:00,
2013-01-23 16:38:00,75.0,58.2,30.18,WSW,256,4.0,14.0,56,0.00,,,0.00,Wunderground v.1.15,2013-01-23 22:38:00,
2013-01-23 16:44:00,74.9,58.6,30.18,SW,231,5.0,14.0,57,0.00,,,0.00,Wunderground v.1.15,2013-01-23 22:44:00,
2013-01-23 16:50:00,74.9,58.1,30.18,SW,232,5.0,14.0,56,0.00,,,0.00,Wunderground v.1.15,2013-01-23 22:50:00,
2013-01-23 16:56:00,74.9,58.1,30.18,West,259,4.0,14.0,56,0.00,,,0.00,Wunderground v.1.15,2013-01-23 22:56:00,
2013-01-23 17:02:00,75.0,58.2,30.19,WSW,242,4.0,10.0,56,0.00,,,0.00,Wunderground v.1.15,2013-01-23 23:02:00,
2013-01-23 17:08:00,74.8,57.5,30.19,WSW,242,4.0,10.0,55,0.00,,,0.00,Wunderground v.1.15,2013-01-23 23:08:00,
2013-01-23 17:14:00,74.4,57.7,30.19,WSW,253,5.0,10.0,56,0.00,,,0.00,Wunderground v.1.15,2013-01-23 23:14:00,
2013-01-23 17:20:00,74.0,57.3,30.19,SW,228,5.0,5.0,56,0.00,,,0.00,Wunderground v.1.15,2013-01-23 23:20:00,
2013-01-23 17:26:00,73.8,57.6,30.19,SW,219,4.0,10.0,57,0.00,,,0.00,Wunderground v.1.15,2013-01-23 23:26:00,
2013-01-23 17:32:00,73.7,57.5,30.18,WSW,256,3.0,10.0,57,0.00,,,0.00,Wunderground v.1.15,2013-01-23 23:32:00,
2013-01-23 17:38:00,73.5,57.3,30.18,SW,218,3.0,10.0,57,0.00,,,0.00,Wunderground v.1.15,2013-01-23 23:38:00,
2013-01-23 17:44:00,73.3,57.1,30.19,SW,226,2.0,10.0,57,0.00,,,0.00,Wunderground v.1.15,2013-01-23 23:44:00,
2013-01-23 17:50:00,73.1,57.4,30.19,West,266,2.0,2.0,58,0.00,,,0.00,Wunderground v.1.15,2013-01-23 23:50:00,
2013-01-23 17:56:00,72.8,57.2,30.19,WSW,249,2.0,10.0,58,0.00,,,0.00,Wunderground v.1.15,2013-01-23 23:56:00,
2013-01-23 18:02:00,72.4,57.3,30.19,WSW,246,2.0,10.0,59,0.00,,,0.00,Wunderground v.1.15,2013-01-24 00:02:00,
2013-01-23 18:08:00,72.0,56.9,30.18,WSW,246,1.0,10.0,59,0.00,,,0.00,Wunderground v.1.15,2013-01-24 00:08:00,
2013-01-23 18:14:00,71.6,57.0,30.18,SSE,147,1.0,6.0,60,0.00,,,0.00,Wunderground v.1.15,2013-01-24 00:14:00,
2013-01-23 18:20:00,71.1,57.0,30.18,SSE,156,1.0,6.0,61,0.00,,,0.00,Wunderground v.1.15,2013-01-24 00:20:00,
2013-01-23 18:26:00,70.5,56.9,30.18,South,173,1.0,6.0,62,0.00,,,0.00,Wunderground v.1.15,2013-01-24 00:26:00,
2013-01-23 18:32:00,70.1,56.9,30.18,SE,140,2.0,6.0,63,0.00,,,0.00,Wunderground v.1.15,2013-01-24 00:32:00,
2013-01-23 18:38:00,69.7,56.5,30.18,SE,145,1.0,6.0,63,0.00,,,0.00,Wunderground v.1.15,2013-01-24 00:38:00,
2013-01-23 18:44:00,69.1,56.4,30.18,SE,145,0.0,6.0,64,0.00,,,0.00,Wunderground v.1.15,2013-01-24 00:44:00,
2013-01-23 18:50:00,68.4,56.6,30.18,SE,145,0.0,6.0,66,0.00,,,0.00,Wunderground v.1.15,2013-01-24 00:50:00,
2013-01-23 18:56:00,67.9,56.5,30.18,SE,145,0.0,6.0,67,0.00,,,0.00,Wunderground v.1.15,2013-01-24 00:56:00,
2013-01-23 19:02:00,67.4,56.1,30.18,SE,132,0.0,6.0,67,0.00,,,0.00,Wunderground v.1.15,2013-01-24 01:02:00,
2013-01-23 19:08:00,67.1,56.2,30.18,SE,132,1.0,6.0,68,0.00,,,0.00,Wunderground v.1.15,2013-01-24 01:08:00,
2013-01-23 19:14:00,66.8,55.9,30.18,SE,129,1.0,2.0,68,0.00,,,0.00,Wunderground v.1.15,2013-01-24 01:14:00,
2013-01-23 19:20:00,66.9,56.0,30.18,SE,132,1.0,1.0,68,0.00,,,0.00,Wunderground v.1.15,2013-01-24 01:20:00,
2013-01-23 19:26:00,66.8,55.9,30.18,ESE,122,1.0,2.0,68,0.00,,,0.00,Wunderground v.1.15,2013-01-24 01:26:00,
2013-01-23 19:32:00,66.6,56.1,30.18,ESE,118,1.0,2.0,69,0.00,,,0.00,Wunderground v.1.15,2013-01-24 01:32:00,
2013-01-23 19:38:00,66.4,55.9,30.18,SE,131,2.0,2.0,69,0.00,,,0.00,Wunderground v.1.15,2013-01-24 01:38:00,
2013-01-23 19:44:00,66.3,55.8,30.18,SSE,150,2.0,2.0,69,0.00,,,0.00,Wunderground v.1.15,2013-01-24 01:44:00,
2013-01-23 19:50:00,66.5,56.0,30.18,SE,136,2.0,2.0,69,0.00,,,0.00,Wunderground v.1.15,2013-01-24 01:50:00,
2013-01-23 19:56:00,66.6,56.1,30.18,SE,141,2.0,3.0,69,0.00,,,0.00,Wunderground v.1.15,2013-01-24 01:56:00,
2013-01-23 20:02:00,66.4,55.9,30.18,SSE,147,1.0,3.0,69,0.00,,,0.00,Wunderground v.1.15,2013-01-24 02:02:00,
2013-01-23 20:08:00,66.4,55.9,30.18,SSE,148,2.0,3.0,69,0.00,,,0.00,Wunderground v.1.15,2013-01-24 02:08:00,
2013-01-23 20:14:00,66.4,55.9,30.18,SE,134,2.0,3.0,69,0.00,,,0.00,Wunderground v.1.15,2013-01-24 02:14:00,
2013-01-23 20:20:00,66.2,55.7,30.18,SSE,162,2.0,3.0,69,0.00,,,0.00,Wunderground v.1.15,2013-01-24 02:20:00,
2013-01-23 20:26:00,66.3,55.8,30.18,SSE,155,2.0,4.0,69,0.00,,,0.00,Wunderground v.1.15,2013-01-24 02:26:00,
2013-01-23 20:32:00,66.5,56.0,30.19,SSE,156,3.0,4.0,69,0.00,,,0.00,Wunderground v.1.15,2013-01-24 02:32:00,
2013-01-23 20:38:00,66.4,56.3,30.19,SE,146,3.0,4.0,70,0.00,,,0.00,Wunderground v.1.15,2013-01-24 02:38:00,
2013-01-23 20:44:00,66.4,56.3,30.19,East,101,3.0,3.0,70,0.00,,,0.00,Wunderground v.1.15,2013-01-24 02:44:00,
2013-01-23 20:50:00,66.4,56.7,30.19,SE,129,3.0,3.0,71,0.00,,,0.00,Wunderground v.1.15,2013-01-24 02:50:00,
2013-01-23 20:56:00,66.4,56.7,30.19,SE,135,3.0,4.0,71,0.00,,,0.00,Wunderground v.1.15,2013-01-24 02:56:00,
2013-01-23 21:02:00,66.2,56.5,30.19,East,94,4.0,6.0,71,0.00,,,0.00,Wunderground v.1.15,2013-01-24 03:02:00,
2013-01-23 21:08:00,66.2,56.9,30.20,South,180,5.0,7.0,72,0.00,,,0.00,Wunderground v.1.15,2013-01-24 03:08:00,
2013-01-23 21:14:00,66.1,57.6,30.20,SSE,158,6.0,7.0,74,0.00,,,0.00,Wunderground v.1.15,2013-01-24 03:14:00,
2013-01-23 21:20:00,66.0,57.8,30.20,SSE,160,5.0,5.0,75,0.00,,,0.00,Wunderground v.1.15,2013-01-24 03:20:00,
2013-01-23 21:26:00,65.7,58.3,30.20,SSW,203,5.0,6.0,77,0.00,,,0.00,Wunderground v.1.15,2013-01-24 03:26:00,
2013-01-23 21:32:00,65.4,58.4,30.20,SSE,147,4.0,6.0,78,0.00,,,0.00,Wunderground v.1.15,2013-01-24 03:32:00,
2013-01-23 21:38:00,65.2,58.5,30.21,SSE,163,4.0,6.0,79,0.00,,,0.00,Wunderground v.1.15,2013-01-24 03:38:00,
2013-01-23 21:44:00,64.9,58.6,30.21,SW,222,4.0,6.0,80,0.00,,,0.00,Wunderground v.1.15,2013-01-24 03:44:00,
2013-01-23 21:50:00,64.6,58.6,30.21,SSE,165,3.0,6.0,81,0.00,,,0.00,Wunderground v.1.15,2013-01-24 03:50:00,
2013-01-23 21:56:00,64.3,58.7,30.21,SSE,160,4.0,6.0,82,0.00,,,0.00,Wunderground v.1.15,2013-01-24 03:56:00,
2013-01-23 22:02:00,64.0,58.7,30.21,SSE,158,4.0,9.0,83,0.00,,,0.00,Wunderground v.1.15,2013-01-24 04:02:00,
2013-01-23 22:08:00,63.8,58.5,30.21,SSE,163,4.0,9.0,83,0.00,,,0.00,Wunderground v.1.15,2013-01-24 04:08:00,
2013-01-23 22:14:00,63.5,58.6,30.21,SW,225,4.0,9.0,84,0.00,,,0.00,Wunderground v.1.15,2013-01-24 04:14:00,
2013-01-23 22:20:00,63.3,58.7,30.21,South,188,4.0,4.0,85,0.00,,,0.00,Wunderground v.1.15,2013-01-24 04:20:00,
2013-01-23 22:26:00,63.1,58.5,30.21,SSE,164,4.0,9.0,85,0.00,,,0.00,Wunderground v.1.15,2013-01-24 04:26:00,
2013-01-23 22:32:00,63.0,58.7,30.21,South,170,4.0,9.0,86,0.00,,,0.00,Wunderground v.1.15,2013-01-24 04:32:00,
2013-01-23 22:38:00,62.8,58.9,30.21,SSW,213,4.0,9.0,87,0.00,,,0.00,Wunderground v.1.15,2013-01-24 04:38:00,
2013-01-23 22:44:00,62.6,58.7,30.21,SE,125,3.0,9.0,87,0.00,,,0.00,Wunderground v.1.15,2013-01-24 04:44:00,
2013-01-23 22:50:00,62.5,58.9,30.21,SSE,152,4.0,9.0,88,0.00,,,0.00,Wunderground v.1.15,2013-01-24 04:50:00,
2013-01-23 22:56:00,62.3,58.7,30.21,SSE,154,4.0,9.0,88,0.00,,,0.00,Wunderground v.1.15,2013-01-24 04:56:00,
2013-01-23 23:04:00,62.2,58.9,30.21,SSE,155,4.0,9.0,89,0.00,,,0.00,Wunderground v.1.15,2013-01-24 05:04:00,
2013-01-23 23:08:00,62.1,58.8,30.21,SE,134,4.0,9.0,89,0.00,,,0.00,Wunderground v.1.15,2013-01-24 05:08:00,
2013-01-23 23:14:00,62.0,58.7,30.21,SSE,155,4.0,9.0,89,0.00,,,0.00,Wunderground v.1.15,2013-01-24 05:14:00,
2013-01-23 23:20:00,61.9,58.9,30.21,SSE,158,4.0,4.0,90,0.00,,,0.00,Wunderground v.1.15,2013-01-24 05:20:00,
2013-01-23 23:26:00,61.8,58.8,30.21,SSW,204,3.0,9.0,90,0.00,,,0.00,Wunderground v.1.15,2013-01-24 05:26:00,
2013-01-23 23:32:00,61.6,58.6,30.21,SW,235,3.0,9.0,90,0.00,,,0.00,Wunderground v.1.15,2013-01-24 05:32:00,
2013-01-23 23:34:00,61.6,58.6,30.21,SSE,168,3.0,9.0,90,0.00,,,0.00,Wunderground v.1.15,2013-01-24 05:34:00,
2013-01-23 23:40:00,61.5,58.5,30.21,SSE,166,3.0,9.0,90,0.00,,,0.00,Wunderground v.1.15,2013-01-24 05:40:00,
2013-01-23 23:46:00,61.3,58.7,30.21,SE,143,3.0,9.0,91,0.00,,,0.00,Wunderground v.1.15,2013-01-24 05:46:00,
2013-01-23 23:52:00,61.2,58.6,30.21,ESE,114,3.0,9.0,91,0.00,,,0.00,Wunderground v.1.15,2013-01-24 05:52:00,
2013-01-23 23:58:00,61.1,58.5,30.21,SSW,195,3.0,9.0,91,0.00,,,0.00,Wunderground v.1.15,2013-01-24 05:58:00,